This is the latest recevied weather packets stored in our database for station/object KC9VAF. If no packets are shown the sender has not sent any weather packets the latest 10 day(s).
| Time | Temp. | Humidity | Pressure | Rain* | Wind** | Luminosity | Snow |
|---|---|---|---|---|---|---|---|
| 1778196070 | 8.89° C | 64% | 1011 hPa | 0 mm | - | 138 W/m² | - |
| 1778195766 | 8.89° C | 64% | 1011 hPa | 0 mm | - | 150 W/m² | - |
| 1778195463 | 8.89° C | 64% | 1010.9 hPa | 0 mm | - | 173 W/m² | - |
| 1778195160 | 8.89° C | 64% | 1011.4 hPa | 0 mm | - | 187 W/m² | - |
| 1778194856 | 9.44° C | 65% | 1011.4 hPa | 0 mm | - | 201 W/m² | - |
| 1778194551 | 9.44° C | 65% | 1011.3 hPa | 0 mm | - | 209 W/m² | - |
| 1778194248 | 10° C | 65% | 1011.3 hPa | 0 mm | - | 207 W/m² | - |
| 1778193944 | 10° C | 65% | 1011.1 hPa | 0 mm | - | 241 W/m² | - |
| 1778193641 | 10° C | 64% | 1011.3 hPa | 0 mm | - | 250 W/m² | - |
| 1778193337 | 10° C | 64% | 1011.4 hPa | 0 mm | - | 271 W/m² | - |
| 1778193034 | 10.56° C | 62% | 1011.5 hPa | 0 mm | - | 293 W/m² | - |
| 1778192731 | 10.56° C | 62% | 1011.4 hPa | 0 mm | - | 294 W/m² | - |
| 1778192427 | 10.56° C | 61% | 1010.9 hPa | 0 mm | - | 319 W/m² | - |
| 1778192124 | 10° C | 61% | 1011 hPa | 0 mm | - | 319 W/m² | - |
| 1778191821 | 10.56° C | 59% | 1010.9 hPa | 0 mm | - | 362 W/m² | - |
| 1778191518 | 10.56° C | 59% | 1011 hPa | 0 mm | - | 347 W/m² | - |
| 1778191215 | 10.56° C | 58% | 1011.1 hPa | 0 mm | - | 375 W/m² | - |
| 1778190911 | 10° C | 56% | 1011.3 hPa | 0 mm | - | 392 W/m² | - |
| 1778190610 | 10° C | 55% | 1011.3 hPa | 0 mm | - | 395 W/m² | - |
| 1778190306 | 10.56° C | 53% | 1011.3 hPa | 0 mm | - | 418 W/m² | - |
| 1778190002 | 10.56° C | 53% | 1011.1 hPa | 0 mm | - | 434 W/m² | - |
| 1778189699 | 10° C | 54% | 1011.3 hPa | 0 mm | - | 410 W/m² | - |
| 1778189395 | 10° C | 53% | 1011.1 hPa | 0 mm | - | 361 W/m² | - |
| 1778189091 | 10° C | 54% | 1011.4 hPa | 0 mm | - | 468 W/m² | - |
| 1778188788 | 10.56° C | 52% | 1011.6 hPa | 0 mm | - | 356 W/m² | - |
* Rain latest hour (hover to see other rain measurements)
** Current wind speed in m/s (hover to see current wind gust speed)